User: anonymous
Location: Unspecified
(0.0000°N, 0.0000°E)
Time: 10:19:42
(UTC+00:00)
Language:

S-56A Canister/Altair - Orbit

View from above orbital plane
View from above orbital plane
View from above satellite
View from above satellite

Ground track
Ground track

The orbit data is extracted from the following two-line orbital elements,

1 00082U 61004B   14207.29819981 -.00000026  00000-0  21188-4 0  7061
2 00082 038.8536 247.5604 1176883 135.7865 234.3158 12.25640227543573
Epoch (UTC): 26 July 2014 07:09:24
Eccentricity: 0.1176883
inclination: 38.8536°
perigee height: 633 km
apogee height: 2503 km
right ascension of ascending node: 247.5604°
argument of perigee: 135.7865°
revolutions per day: 12.25640227
mean anomaly at epoch: 234.3158°
orbit number at epoch: 54357

The dashed part of the orbit path shows where the satellite is in the earth's shadow,  

DLR